This is the latest recevied weather packets stored in our database for station/object N5SNT-2. If no packets are shown the sender has not sent any weather packets the latest 10 day(s).
| Time | Temp. | Humidity | Pressure | Rain* | Wind** | Luminosity | Snow |
|---|---|---|---|---|---|---|---|
| 1777080444 | 28.89° C | 65% | 1006 hPa | 0 mm | - | 0 W/m² | - |
| 1777080144 | 28.89° C | 64% | 1006 hPa | 0 mm | - | 0 W/m² | - |
| 1777079843 | 29.44° C | 63% | 1006 hPa | 0 mm | - | 1 W/m² | - |
| 1777079543 | 29.44° C | 62% | 1006 hPa | 0 mm | - | 1 W/m² | - |
| 1777079244 | 29.44° C | 61% | 1006 hPa | 0 mm | - | 3 W/m² | - |
| 1777078944 | 30° C | 60% | 1006 hPa | 0 mm | - | 5 W/m² | - |
| 1777078643 | 30° C | 60% | 1006 hPa | 0 mm | - | 9 W/m² | - |
| 1777078343 | 30° C | 59% | 1006 hPa | 0 mm | - | 13 W/m² | - |
| 1777078043 | 30.56° C | 59% | 1006 hPa | 0 mm | - | 17 W/m² | - |
| 1777077743 | 30.56° C | 58% | 1006 hPa | 0 mm | - | 23 W/m² | - |
| 1777077443 | 30.56° C | 57% | 1006 hPa | 0 mm | - | 29 W/m² | - |
| 1777077144 | 30.56° C | 57% | 1006 hPa | 0 mm | - | 36 W/m² | - |
| 1777076844 | 31.11° C | 56% | 1006 hPa | 0 mm | - | 43 W/m² | - |
| 1777076543 | 31.11° C | 54% | 1006 hPa | 0 mm | - | 49 W/m² | - |
| 1777076243 | 31.11° C | 54% | 1006 hPa | 0 mm | - | 53 W/m² | - |
| 1777075944 | 31.11° C | 54% | 1006 hPa | 0 mm | - | 55 W/m² | - |
| 1777075644 | 31.67° C | 53% | 1006 hPa | 0 mm | - | 76 W/m² | - |
| 1777075343 | 31.11° C | 53% | 1006 hPa | 0 mm | - | 89 W/m² | - |
| 1777075043 | 31.11° C | 52% | 1006 hPa | 0 mm | - | 95 W/m² | - |
| 1777074744 | 31.11° C | 52% | 1006 hPa | 0 mm | - | 87 W/m² | - |
| 1777074443 | 31.67° C | 51% | 1006 hPa | 0 mm | - | 97 W/m² | - |
| 1777074144 | 31.67° C | 49% | 1006 hPa | 0 mm | - | 100 W/m² | - |
| 1777073843 | 32.22° C | 48% | 1006 hPa | 0 mm | - | 128 W/m² | - |
| 1777073545 | 32.22° C | 48% | 1006 hPa | 0 mm | - | 175 W/m² | - |
| 1777073243 | 31.67° C | 49% | 1006 hPa | 0 mm | - | 194 W/m² | - |
* Rain latest hour (hover to see other rain measurements)
** Current wind speed in m/s (hover to see current wind gust speed)